Weerstation Grootegast  Weerstation Grootegast


15 daagse weersverwachting Nürnberg (DE)

  • Overzicht
  • Per uur
  • 15 dagen
  • Extra
  • Vergelijk
  • Kaarten
  • Dagkaart
  • Meer »
  • Info
  • Statistieken
  • Directe link
    Temp 6h Neerslag Wind  
 07:05     17:52    Daglengte: 10:47 Vandaag
07:00
1.0 mm
6
13:00
1.2 mm
8
19:00
6.8 mm
5
 07:03     17:54    Daglengte: 10:51 Morgen
01:00
 
5
07:00
 
4
13:00
 
4
19:00
8.9 mm
5
warningclass
 07:01     17:56    Daglengte: 10:55 Vrijdag 28 Feb
01:00
17.0 mm
7
warningclass
07:00
11.2 mm
6
warningclass
13:00
3.1 mm
6
19:00
 
2
 06:59     17:57    Daglengte: 10:58 Zaterdag 29 Feb
01:00
10.5 mm
3
Locatie info
Region: Bayern
Latitude: 49.4543°N
Longitude: 11.0735°E
300 masl
Postcode: 90403
Temp/Neerslag /Baro Onweer/DauwpuntSneeuw
    Temp Baro 1h Neerslag Dauwpunt Wind UV BewolkingSneeuw  
 07:05     17:52    Daglengte: 10:47 Vandaag
06:00
Voelt als: -2.2°
997.1 hPa 1.0 mm
49%
-0.2°
6
Windvlaag: 3.4 m/s
72%1 cm
07:00
Voelt als: -2.4°
997.3 hPa
79%
-0.4°
6
Windvlaag: 2.6 m/s
53%1 cm
08:00
Voelt als: -2.9°
997.8 hPa
78%
-0.8°
6
Windvlaag: 2.9 m/s
42%1 cm
09:00
Voelt als: -2.7°
998.1 hPa
78%
-0.9°
7
Windvlaag: 3.3 m/s
32%1 cm
10:00
Voelt als: -2.0°
998.0 hPa
77%
-1.3°
7
Windvlaag: 3.5 m/s
30%1 cm
11:00
Voelt als: -1.5°
997.9 hPa 0.6 mm
28%
-1.4°
8
Windvlaag: 2.8 m/s
46%1 cm
12:00
Voelt als: -0.9°
997.7 hPa 0.6 mm
64%
-1.5°
8
Windvlaag: 3.1 m/s
59%1 cm
13:00
Voelt als: -0.3°
997.7 hPa
70%
-0.6°
8
Windvlaag: 2.7 m/s
54%1 cm
14:00
Voelt als: -0.4°
998.0 hPa 1.1 mm
72%
-0.8°
8
Windvlaag: 2 m/s
77%1 cm
15:00
Voelt als: -1.1°
998.9 hPa 0.9 mm
82%
-0.6°
7
Windvlaag: 2 m/s
82%1 cm
16:00
Voelt als: -1.3°
999.8 hPa 1.1 mm
82%
-0.4°
6
Windvlaag: 1.3 m/s
82%2 cm
17:00
Voelt als: -2.0°
1000.7 hPa 1.4 mm
82%
-0.5°
6
Windvlaag: 0.9 m/s
81%2 cm
18:00
Voelt als: -2.1°
1001.9 hPa 1.0 mm
80%
-1.0°
5
Windvlaag: 0.8 m/s
70%2 cm
19:00
Voelt als: -2.2°
1003.1 hPa 1.2 mm
76%
-1.2°
5
Windvlaag: 1.3 m/s
51%2 cm
20:00
Voelt als: -2.5°
1004.1 hPa
74%
-1.2°
5
Windvlaag: 2.1 m/s
57%2 cm
21:00
Voelt als: -2.7°
1004.8 hPa
76%
-1.4°
5
Windvlaag: 1.7 m/s
69%2 cm
22:00
Voelt als: -2.9°
1005.6 hPa
79%
-1.1°
5
Windvlaag: 1.5 m/s
53%2 cm
23:00
Voelt als: -3.0°
1006.1 hPa
82%
-1.1°
5
Windvlaag: 1.5 m/s
61%2 cm
 07:03     17:54    Daglengte: 10:51 Morgen
00:00
Voelt als: -3.2°
1006.6 hPa
82%
-1.5°
5
Windvlaag: 1.5 m/s
57%2 cm
01:00
Voelt als: -3.5°
1007.2 hPa
79%
-1.9°
5
Windvlaag: 1.6 m/s
44%2 cm
02:00
Voelt als: -4.0°
1007.8 hPa
76%
-1.8°
5
Windvlaag: 1.4 m/s
45%2 cm
03:00
Voelt als: -3.8°
1008.0 hPa
82%
-2.1°
5
Windvlaag: 1.9 m/s
47%2 cm
04:00
Voelt als: -3.8°
1008.1 hPa
42%
-2.4°
5
Windvlaag: 1.6 m/s
30%2 cm
05:00
Voelt als: -3.8°
1008.5 hPa
75%
-1.8°
4
Windvlaag: 1.4 m/s
46%2 cm
06:00
Voelt als: -3.8°
1008.9 hPa
79%
-1.5°
4
Windvlaag: 1.6 m/s
63%2 cm
07:00
Voelt als: -3.6°
1008.9 hPa
81%
-1.7°
4
Windvlaag: 1.7 m/s
82%2 cm
08:00
Voelt als: -3.2°
1008.9 hPa
79%
-1.9°
4
Windvlaag: 2 m/s
80%2 cm
09:00
Voelt als: -3.2°
1008.7 hPa
74%
-2.4°
6
Windvlaag: 2.5 m/s
74%2 cm
10:00
Voelt als: -1.9°
1007.9 hPa
32%
-2.7°
6
Windvlaag: 3.1 m/s
51%2 cm
11:00
Voelt als: -0.7°
1006.8 hPa
14%
-2.9°
5
Windvlaag: 3.2 m/s
62%2 cm
12:00
Voelt als: 0.6°
1005.6 hPa
14%
-2.4°
4
Windvlaag: 3.3 m/s
85%2 cm
13:00
Voelt als: 1.3°
1003.8 hPa
14%
-3.4°
4
Windvlaag: 3.4 m/s
89%2 cm
14:00
Voelt als: 1.9°
1001.8 hPa
14%
-4.6°
4
Windvlaag: 3.4 m/s
91%1 cm
15:00
Voelt als: 1.7°
1000.1 hPa
14%
-4.5°
4
Windvlaag: 3.4 m/s
91%1 cm
16:00
Voelt als: 0.5°
998.4 hPa 1.5 mm
58%
-3.6°
5
Windvlaag: 4.7 m/s
91%1 cm
17:00
Voelt als: -1.5°
996.9 hPa 1.5 mm
82%
-2.7°
5
Windvlaag: 4.8 m/s
91%2 cm
18:00
Voelt als: -3.1°
995.4 hPa 2.7 mm
82%
-1.7°
5
Windvlaag: 4.6 m/s
91%3 cm
19:00
Voelt als: -3.8°
993.6 hPa 3.1 mm
82%
-1.1°
5
Windvlaag: 4.4 m/s
91%4 cm warningclass
20:00
Voelt als: -4.0°
991.6 hPa 3.0 mm
82%
-1.0°
6
Windvlaag: 6.4 m/s
90%4 cm warningclass
21:00
Voelt als: -3.5°
990.2 hPa 3.5 mm
82%
-0.9°
5
Windvlaag: 6.8 m/s
87%3 cm warningclass
22:00
Voelt als: -3.2°
989.9 hPa 2.9 mm
100%
-0.2°
5
Windvlaag: 4.9 m/s
98%3 cm warningclass
23:00
Voelt als: -5.5°
994.5 hPa 2.6 mm
100%
-0.2°
9
Windvlaag: 0.2 m/s
98%5 cm warningclass
 07:01     17:56    Daglengte: 10:55 Vrijdag 28 Feb
00:00
Voelt als: -5.4°
999.8 hPa 2.5 mm
100%
-0.7°
8
Windvlaag: -0.9 m/s
98%5 cm warningclass
01:00
Voelt als: -4.9°
1003.4 hPa 2.5 mm
100%
-0.5°
7
Windvlaag: -0.7 m/s
99%5 cm warningclass
02:00
Voelt als: -4.4°
1006.0 hPa 2.4 mm
100%
-0.6°
6
Windvlaag: -1.3 m/s
99%5 cm warningclass
03:00
Voelt als: -4.6°
1007.5 hPa 3.3 mm
100%
-0.6°
6
Windvlaag: -0.6 m/s
99%5 cm warningclass
04:00
Voelt als: -5.2°
1009.0 hPa 3.3 mm
100%
-0.9°
7
Windvlaag: -0.2 m/s
74%5 cm warningclass
05:00
Voelt als: -5.2°
1010.9 hPa
100%
-1.0°
7
Windvlaag: 0.2 m/s
75%5 cm
06:00
Voelt als: -5.2°
1012.6 hPa 2.2 mm
100%
-1.2°
7
Windvlaag: 0.5 m/s
87%4 cm warningclass
07:00
Voelt als: -5.0°
1014.2 hPa
93%
-1.5°
6
Windvlaag: 0 m/s
66%5 cm
08:00
Voelt als: -4.7°
1015.9 hPa
92%
-1.8°
5
Windvlaag: -0.2 m/s
31%5 cm
09:00
Voelt als: -3.8°
1017.0 hPa
96%
-1.6°
5
Windvlaag: 1 m/s
38%4 cm
10:00
Voelt als: -3.4°
1017.9 hPa
85%
-1.4°
6
Windvlaag: 1.8 m/s
42%4 cm
11:00
Voelt als: -2.4°
1018.4 hPa
39%
-1.6°
6
Windvlaag: 1.6 m/s
43%4 cm
12:00
Voelt als: -1.9°
1018.7 hPa
76%
-1.6°
6
Windvlaag: 1.5 m/s
49%3 cm
13:00
Voelt als: -0.6°
1018.6 hPa 3.1 mm
77%
-1.1°
6
Windvlaag: 1.5 m/s
52%3 cm
14:00
Voelt als: 0.1°
1018.1 hPa
21%
-1.0°
5
Windvlaag: 1.4 m/s
62%3 cm
15:00
Voelt als: 0.5°
1017.7 hPa
21%
-1.0°
5
Windvlaag: 1.5 m/s
63%3 cm
16:00
Voelt als: 1.6°
1017.4 hPa
21%
-1.3°
3
Windvlaag: 1.4 m/s
72%2 cm
17:00
Voelt als: 1.0°
1016.9 hPa
21%
-1.8°
3
Windvlaag: 1.6 m/s
80%2 cm
18:00
Voelt als: 0.1°
1016.7 hPa
21%
-1.4°
2
Windvlaag: 1.3 m/s
68%2 cm
19:00
Voelt als: -1.1°
1016.5 hPa
21%
-2.1°
2
Windvlaag: 1 m/s
88%2 cm
20:00
Voelt als: -1.7°
1015.9 hPa
21%
-2.5°
2
Windvlaag: 2 m/s
95%2 cm
21:00
Voelt als: -1.8°
1015.1 hPa
21%
-2.4°
2
Windvlaag: 2.7 m/s
94%2 cm
22:00
Voelt als: -2.1°
1014.7 hPa
21%
-2.4°
3
Windvlaag: 4.7 m/s
89%2 cm
23:00
Voelt als: -2.2°
1013.9 hPa
23%
-2.4°
3
Windvlaag: 5 m/s
94%2 cm
 06:59     17:57    Daglengte: 10:58 Zaterdag 29 Feb
00:00
Voelt als: -2.3°
1012.9 hPa 5.0 mm
96%
-2.5°
3
Windvlaag: 6.1 m/s
99%2 cm
01:00
Voelt als: -2.2°
1012.1 hPa 5.5 mm
100%
-2.5°
3
Windvlaag: 2.7 m/s
99%2 cm
02:00
Voelt als: -2.2°
1011.4 hPa 5.5 mm
100%
-2.3°
4
Windvlaag: 9.2 m/s
97%2 cm
03:00
Voelt als: -2.2°
1010.3 hPa 5.7 mm
100%
-1.9°
4
Windvlaag: 8.1 m/s
98%2 cm
04:00
Voelt als: -1.8°
1009.3 hPa 5.9 mm
100%
-1.3°
4
Windvlaag: 8.3 m/s
98%3 cm
05:00
Voelt als: -1.5°
1008.4 hPa
97%
-0.9°
4
Windvlaag: 10.4 m/s
96%4 cm
Temp/Neerslag /Baro Onweer/DauwpuntSneeuw
    Temp Baro Neerslag Dauwpunt Wind BewolkingSneeuw  
 07:05     17:52    Daglengte: 10:47 Vandaag
07:00
Voelt als: -2.4°
997.3 hPa 1.0 mm -0.4°
6
53%1 cm
10:00
Voelt als: -2.0°
998.0 hPa   -1.3°
7
30%1 cm
13:00
Voelt als: -0.3°
997.7 hPa 1.2 mm -0.6°
8
54%1 cm
16:00
Voelt als: -1.3°
999.8 hPa 3.1 mm -0.4°
6
82%2 cm
19:00
Voelt als: -2.2°
1003.1 hPa 3.6 mm -1.2°
5
51%2 cm
22:00
Voelt als: -2.9°
1005.6 hPa   -1.1°
5
53%2 cm
 07:03     17:54    Daglengte: 10:51 Morgen
01:00
Voelt als: -3.5°
1007.2 hPa   -1.9°
5
44%2 cm
04:00
Voelt als: -3.8°
1008.1 hPa   -2.4°
5
30%2 cm
07:00
Voelt als: -3.6°
1008.9 hPa   -1.7°
4
82%2 cm
10:00
Voelt als: -1.9°
1007.9 hPa   -2.7°
6
51%2 cm
13:00
Voelt als: 1.3°
1003.8 hPa   -3.4°
4
89%2 cm
16:00
Voelt als: 0.5°
998.4 hPa 1.5 mm -3.6°
5
91%1 cm
19:00
Voelt als: -3.8°
993.6 hPa 7.3 mm -1.1°
5
91%4 cm warningclass
22:00
Voelt als: -3.2°
989.9 hPa 9.4 mm -0.2°
5
98%3 cm warningclass
 07:01     17:56    Daglengte: 10:55 Vrijdag 28 Feb
01:00
Voelt als: -4.9°
1003.4 hPa 7.6 mm -0.5°
7
99%5 cm warningclass
04:00
Voelt als: -5.2°
1009.0 hPa 9.0 mm -0.9°
7
74%5 cm warningclass
07:00
Voelt als: -5.0°
1014.2 hPa 2.2 mm -1.5°
6
66%5 cm warningclass
10:00
Voelt als: -3.4°
1017.9 hPa   -1.4°
6
42%4 cm
13:00
Voelt als: -0.6°
1018.6 hPa 3.1 mm -1.1°
6
52%3 cm
16:00
Voelt als: 1.6°
1017.4 hPa   -1.3°
3
72%2 cm
19:00
Voelt als: -1.1°
1016.5 hPa   -2.1°
2
88%2 cm
22:00
Voelt als: -2.1°
1014.7 hPa   -2.4°
3
89%2 cm
 06:59     17:57    Daglengte: 10:58 Zaterdag 29 Feb
01:00
Voelt als: -2.2°
1012.1 hPa 10.5 mm -2.5°
3
99%2 cm
04:00
Voelt als: -1.8°
1009.3 hPa 17.2 mm -1.3°
4
98%3 cm
07:00
Voelt als: -0.1°
1006.7 hPa 19.5 mm 0.4°
4
100%4 cm
10:00
Voelt als: 2.6°
1005.6 hPa 18.1 mm 2.3°
4
91%
13:00
Voelt als: 4.5°
1003.6 hPa 18.1 mm 3.9°
4
90%
16:00
Voelt als: 4.6°
1001.1 hPa 18.1 mm 2.7°
4
91%
19:00
Voelt als: 4.6°
998.9 hPa 19.6 mm 1.5°
4
92%
22:00
Voelt als: 2.6°
1002.4 hPa 20.8 mm 1.9°
6
83%
 06:57     17:59    Daglengte: 11:02 Zondag 01 Maa
01:00
Voelt als: 0.8°
1005.9 hPa 20.8 mm 2.2°
6
74%
04:00
Voelt als: -0.2°
1007.8 hPa 20.8 mm 0.9°
5
77%
07:00
Voelt als: -0.9°
1009.6 hPa 20.8 mm -0.1°
4
80%
10:00
Voelt als: 1.3°
1009.9 hPa 20.8 mm -0.7°
4
82%
13:00
Voelt als: 3.8°
1010.0 hPa 21.0 mm -1.9°
5
85%
16:00
Voelt als: 2.0°
1008.9 hPa 21.2 mm -2.2°
3
49%
19:00
Voelt als: 0.6°
1007.7 hPa 21.2 mm -2.8°
2
13%
22:00
Voelt als: -1.7°
1006.2 hPa 22.3 mm -3.0°
3
11%
 06:55     18:01    Daglengte: 11:06 Maandag 02 Maa
01:00
Voelt als: -3.8°
1005.1 hPa 24.4 mm -3.3°
4
9% warningclass
04:00
Voelt als: -3.1°
1003.8 hPa 24.4 mm -2.2°
4
50% warningclass
07:00
Voelt als: -2.4°
1002.3 hPa 24.4 mm -0.9°
4
92%
10:00
Voelt als: 0.1°
1001.6 hPa 26.5 mm 0.7°
5
84%
13:00
Voelt als: 3.2°
1001.0 hPa 26.6 mm 2.3°
6
76%
16:00
Voelt als: 2.3°
1001.5 hPa 26.6 mm 1.8°
4
81%
19:00
Voelt als: 1.5°
1002.3 hPa 26.6 mm 1.1°
2
86%
22:00
Voelt als: 0.3°
1003.4 hPa 26.6 mm 0.5°
2
89%
 06:53     18:02    Daglengte: 11:09 Dinsdag 03 Maa
01:00
Voelt als: -0.5°
1004.6 hPa 26.6 mm -0.3°
1
92% warningclass
04:00
Voelt als: -0.9°
1006.6 hPa 26.6 mm -0.4°
1
92% warningclass
07:00
Voelt als: -1.4°
1008.8 hPa 26.6 mm -0.5°
1
92% warningclass
10:00
Voelt als: 2.1°
1011.0 hPa 26.7 mm 0.0°
2
92%
13:00
Voelt als: 5.5°
1013.2 hPa 26.8 mm -0.4°
2
92%
16:00
Voelt als: 3.2°
1014.6 hPa 27.1 mm -0.8°
2
74%
19:00
Voelt als: 1.0°
1015.9 hPa 27.2 mm -1.3°
2
57%
22:00
Voelt als: -1.2°
1016.5 hPa 27.2 mm -1.3°
2
40% warningclass
 06:51     18:04    Daglengte: 11:13 Woensdag 04 Maa
01:00
-1°
Voelt als: -3.3°
1016.9 hPa 27.2 mm -1.5°
2
23% warningclass
04:00
-1°
Voelt als: -4.3°
1015.3 hPa   -1.7°
3
16% warningclass
07:00
-1°
Voelt als: -5.0°
1013.8 hPa 54.4 mm -1.7°
4
9% warningclass
13:00
Voelt als: 0.9°
1010.4 hPa 54.5 mm 1.8°
5
92%
19:00
Voelt als: 3.0°
1009.0 hPa 62.2 mm 3.8°
4
48%
 06:49     18:05    Daglengte: 11:16 Donderdag 05 Maa
01:00
Voelt als: 0.3°
1005.1 hPa 67.7 mm 2.3°
4
9%
07:00
Voelt als: -0.3°
1003.6 hPa 69.4 mm 1.6°
7
25%
13:00
Voelt als: 1.3°
1006.3 hPa 71.3 mm -0.7°
8
62%
19:00
Voelt als: -0.8°
1004.9 hPa 79.6 mm -0.9°
5
85%
 06:47     18:07    Daglengte: 11:20 Vrijdag 06 Maa
01:00
Voelt als: -2.5°
1003.6 hPa 84.2 mm -0.3°
5
43%
07:00
Voelt als: -3.3°
1004.6 hPa 85.4 mm -0.5°
5
57% warningclass
13:00
Voelt als: -3.7°
1000.7 hPa 90.0 mm 0.7°
6
1%
19:00
Voelt als: -2.3°
1002.9 hPa 93.2 mm -0.6°
4
1%
 06:45     18:09    Daglengte: 11:24 Zaterdag 07 Maa
01:00
Voelt als: -3.5°
1009.3 hPa 0.8 mm -0.9°
3
67%
07:00
-1°
Voelt als: -3.5°
1010.1 hPa 0.8 mm -1.9°
2
67%
13:00
Voelt als: -0.2°
1011.2 hPa 0.8 mm 0.1°
3
72%
19:00
Voelt als: -1.7°
1013.6 hPa 0.5 mm -0.5°
2
67%
 06:43     18:10    Daglengte: 11:27 Zondag 08 Maa
01:00
Voelt als: -2.7°
1015.0 hPa 0.5 mm -1.0°
2
57%
07:00
-1°
Voelt als: -2.8°
1015.7 hPa 0.7 mm -1.7°
2
60%
13:00
Voelt als: 2.4°
1015.0 hPa 0.5 mm 0.4°
1
67%
19:00
Voelt als: 0.9°
1015.4 hPa 0.3 mm -0.6°
1
57%
 06:41     18:12    Daglengte: 11:31 Maandag 09 Maa
01:00
-0°
Voelt als: -0.2°
1016.5 hPa 0.6 mm -1.1°
1
52%
07:00
-0°
Voelt als: -0.4°
1017.7 hPa 0.8 mm -1.3°
1
56%
13:00
Voelt als: 4.0°
1018.4 hPa 0.6 mm 1.3°
1
54%
19:00
Voelt als: 1.7°
1019.2 hPa 0.5 mm 0.1°
0
53%
 06:39     18:13    Daglengte: 11:34 Dinsdag 10 Maa
01:00
-0°
Voelt als: -0.2°
1020.1 hPa 0.2 mm -1.5°
0
41%
07:00
-0°
Voelt als: -0.3°
1019.8 hPa 0.1 mm -1.8°
0
47%
13:00
Voelt als: 5.1°
1018.6 hPa 0.1 mm 0.8°
1
56%
19:00
Voelt als: 1.8°
1018.3 hPa 0.3 mm -0.4°
1
57%
 06:36     18:15    Daglengte: 11:39 Woensdag 11 Maa
01:00
Voelt als: -0.5°
1018.8 hPa 0.3 mm -1.0°
1
44%
07:00
Voelt als: -1.0°
1019.2 hPa 1.2 mm -1.2°
1
44%
13:00
Voelt als: 4.6°
1018.9 hPa 0.6 mm 1.5°
2
52%
19:00
Voelt als: 2.6°
1018.7 hPa 0.9 mm 0.7°
1
58%
 06:34     18:17    Daglengte: 11:43 Donderdag 12 Maa
01:00
Voelt als: 0.9°
1019.4 hPa 0.7 mm -0.4°
1
49%
  CAPE Lifted Index Hail Supercell Tornado SRH 3km CL BTM PRES CL TOP PRES Swiss DWD icon SMHI TS
 07:05     17:52    Daglengte: 10:47 Vandaag
06:00 30 J/kg 1.9 K 0 % 0 % 0 % 0 m²/s² 0 0 4.96 3
07:00 1 J/kg 1.2 K 0 % 0 % 0 % 0 m²/s² 0 0 4.59 2
08:00 3 J/kg 0.6 K 0 % 0 % 0 % 0 m²/s² 0 0 3.42 2
09:00 16 J/kg -0.1 K 0 % 0 % 0 % 0 m²/s² 0 0 1.4 2
10:00 14 J/kg 0.0 K 0 % 0 % 0 % 0 m²/s² 0 0 2.91 2
11:00 11 J/kg 0.3 K 0 % 0 % 0 % 0 m²/s² 0 0 2.55 2
12:00 0 J/kg 0.0 K 0 % 0 % 0 % 0 m²/s² 0 0 0.78 3
13:00 33 J/kg -0.2 K 0 % 0 % 0 % 0 m²/s² 0 0 0.97 3
14:00 197 J/kg -1.1 K 0 % 0 % 0 % 0 m²/s² 0 0 1.51 3
15:00 41 J/kg -0.3 K 0 % 0 % 0 % 0 m²/s² 0 0 0.42 85
16:00 6 J/kg -1.0 K 0 % 0 % 0 % 0 m²/s² 0 0 -0.19 85
17:00 274 J/kg -1.7 K 0 % 0 % 0 % 0 m²/s² 0 0 0.07 85
18:00 214 J/kg -1.4 K 0 % 0 % 0 % 0 m²/s² 0 0 0.79 3
19:00 111 J/kg -0.7 K 0 % 0 % 0 % 0 m²/s² 0 0 0.74 2
20:00 0 J/kg 0.1 K 0 % 0 % 0 % 0 m²/s² 0 0 1.27 2
21:00 1 J/kg 0.0 K 0 % 0 % 0 % 0 m²/s² 0 0 0.84 2
22:00 6 J/kg -0.6 K 0 % 0 % 0 % 0 m²/s² 0 0 0.51 3
23:00 0 J/kg -0.7 K 0 % 0 % 0 % 0 m²/s² 0 0 1.13 3
 07:03     17:54    Daglengte: 10:51 Morgen
00:00 0 J/kg 0.1 K 0 % 0 % 0 % 0 m²/s² 0 0 2.77 85
01:00 0 J/kg 0.0 K 0 % 0 % 0 % 0 m²/s² 0 0 2.07 85
02:00 0 J/kg 0.3 K 0 % 0 % 0 % 0 m²/s² 0 0 2.55 85
03:00 0 J/kg 1.3 K 0 % 0 % 0 % 0 m²/s² 0 0 3.55 85
04:00 0 J/kg 1.8 K 0 % 0 % 0 % 0 m²/s² 0 0 4.89 2
05:00 3 J/kg 2.4 K 0 % 0 % 0 % 0 m²/s² 0 0 5.85 85
06:00 0 J/kg 4.4 K 0 % 0 % 0 % 0 m²/s² 0 0 5.03 3
07:00 1 J/kg 5.5 K 0 % 0 % 0 % 0 m²/s² 0 0 6.79 85
08:00 2 J/kg 6.8 K 0 % 0 % 0 % 0 m²/s² 0 0 7.73 85
09:00 2 J/kg 7.8 K 0 % 0 % 0 % 0 m²/s² 0 0 10.95 3
10:00 1 J/kg 9.0 K 0 % 0 % 0 % 0 m²/s² 0 0 13.2 2
11:00 7 J/kg 9.8 K 0 % 0 % 0 % 0 m²/s² 0 0 13.73 3
12:00 5 J/kg 10.4 K 0 % 0 % 0 % 0 m²/s² 0 0 13.37 3
13:00 11 J/kg 10.6 K 0 % 0 % 0 % 0 m²/s² 0 0 11.29 3
14:00 10 J/kg 11.1 K 0 % 0 % 0 % 0 m²/s² 0 0 11.64 3
15:00 4 J/kg 10.9 K 0 % 0 % 0 % 0 m²/s² 0 0 11.41 3
16:00 2 J/kg 10.6 K 0 % 0 % 0 % 0 m²/s² 0 0 11.08 3
17:00 0 J/kg 9.1 K 0 % 0 % 0 % 0 m²/s² 0 0 9.55 61
18:00 0 J/kg 6.5 K 0 % 0 % 0 % 0 m²/s² 0 0 6.86 73
19:00 0 J/kg 2.8 K 0 % 0 % 0 % 0 m²/s² 0 0 3.13 73
20:00 0 J/kg 1.5 K 0 % 0 % 0 % 0 m²/s² 0 0 2.13 73
21:00 53 J/kg 4.3 K 0 % 0 % 0 % 0 m²/s² 0 0 7.33 73
22:00 0 J/kg 6.3 K 0 % 0 % 0 % 0 m²/s² 0 0 6.78 73
23:00 0 J/kg 4.1 K 0 % 0 % 0 % 0 m²/s² 0 0 4.52 61
 07:01     17:56    Daglengte: 10:55 Vrijdag 28 Feb
00:00 0 J/kg 5.9 K 0 % 0 % 0 % 0 m²/s² 0 0 6.44 71
01:00 1 J/kg 5.1 K 0 % 0 % 0 % 0 m²/s² 0 0 5.67 71
02:00 1 J/kg 4.2 K 0 % 0 % 0 % 0 m²/s² 0 0 5.01 71
03:00 6 J/kg 4.3 K 0 % 0 % 0 % 0 m²/s² 0 0 5.62 71
04:00 2 J/kg 4.7 K 0 % 0 % 0 % 0 m²/s² 0 0 5.87 71
05:00 1 J/kg 5.2 K 0 % 0 % 0 % 0 m²/s² 0 0 6.25 61
06:00 0 J/kg 5.7 K 0 % 0 % 0 % 0 m²/s² 0 0 6.81 71
07:00 1 J/kg 7.0 K 0 % 0 % 0 % 0 m²/s² 0 0 8.35 2
08:00 0 J/kg 7.8 K 0 % 0 % 0 % 0 m²/s² 0 0 13.05 2
09:00 0 J/kg 8.7 K 0 % 0 % 0 % 0 m²/s² 0 0 15.06 2
10:00 10 J/kg 8.3 K 0 % 0 % 0 % 0 m²/s² 0 0 15.41 2
11:00 7 J/kg 8.8 K 0 % 0 % 0 % 0 m²/s² 0 0 14.98 2
12:00 6 J/kg 9.3 K 0 % 0 % 0 % 0 m²/s² 0 0 14.46 3
13:00 33 J/kg 9.5 K 0 % 0 % 0 % 0 m²/s² 0 0 14.66 85
14:00 13 J/kg 10.2 K 0 % 0 % 0 % 0 m²/s² 0 0 15.54 3
15:00 2 J/kg 11.3 K 0 % 0 % 0 % 0 m²/s² 0 0 15.8 3
16:00 0 J/kg 11.9 K 0 % 0 % 0 % 0 m²/s² 0 0 15.56 3
17:00 0 J/kg 12.3 K 0 % 0 % 0 % 0 m²/s² 0 0 14.7 3
18:00 0 J/kg 12.6 K 0 % 0 % 0 % 0 m²/s² 0 0 14.22 2
19:00 0 J/kg 13.2 K 0 % 0 % 0 % 0 m²/s² 0 0 14.43 3
20:00 0 J/kg 12.4 K 0 % 0 % 0 % 0 m²/s² 0 0 12.94 3
21:00 0 J/kg 12.4 K 0 % 0 % 0 % 0 m²/s² 0 0 12.88 3
22:00 0 J/kg 12.4 K 0 % 0 % 0 % 0 m²/s² 0 0 12.88 3
23:00 0 J/kg 12.0 K 0 % 0 % 0 % 0 m²/s² 0 0 12.36 3
 06:59     17:57    Daglengte: 10:58 Zaterdag 29 Feb
00:00 0 J/kg 10.6 K 0 % 0 % 0 % 0 m²/s² 0 0 10.87 61
01:00 0 J/kg 8.8 K 0 % 0 % 0 % 0 m²/s² 0 0 9.07 61
02:00 0 J/kg 6.8 K 0 % 0 % 0 % 0 m²/s² 0 0 7.25 61
03:00 0 J/kg 5.8 K 0 % 0 % 0 % 0 m²/s² 0 0 6.1 61
04:00 0 J/kg 4.8 K 0 % 0 % 0 % 0 m²/s² 0 0 5.13 61
05:00 0 J/kg 3.6 K 0 % 0 % 0 % 0 m²/s² 0 0 3.96 3
Temp Baro Wind Neerslag
  EWN Forecast EWN WRFDA DWD ICON FMI HIRLAM MET Norway GFS
 07:05     17:52    Daglengte: 10:47 Vandaag
07:00 2.5° 997.3 hPa 6.3 m/s 1.0 mm 1.8° 993.2 hPa 7.1 m/s 3.4 mm 2.8° 998.5 hPa 5.1 m/s 1.6 mm 2.8° 996.4 hPa 8.0 m/s 0.0 mm 2.0° 997.5 hPa 6.2 m/s 1.8° 998.5 hPa 6.8 m/s
10:00 3.2° 998.0 hPa 7.5 m/s 0.0 mm 3.2° 992.1 hPa 10.2 m/s 5.2 mm 3.6° 998.8 hPa 5.8 m/s 0.2 mm 3.0° 996.0 hPa 7.5 m/s 0.0 mm 2.9° 998.6 hPa 7.8 m/s 3.3° 998.4 hPa 8.5 m/s
13:00 4.6° 997.7 hPa 7.6 m/s 1.2 mm 2.9° 991.4 hPa 10.9 m/s 7.7 mm 5.5° 998.3 hPa 6.5 m/s 0.0 mm 4.7° 994.5 hPa 9.1 m/s 0.0 mm 4.6° 998.6 hPa 7.4 m/s 4.0° 997.9 hPa 9.1 m/s
16:00 3.3° 999.8 hPa 6.1 m/s 3.1 mm 1.7° 994.8 hPa 7.0 m/s 11.9 mm 3.5° 1000.1 hPa 5.5 m/s 0.4 mm 3.3° 996.6 hPa 8.9 m/s 0.0 mm 3.8° 1000.7 hPa 5.0 m/s 2.2° 1000.2 hPa 9.0 m/s
19:00 2.1° 1003.1 hPa 4.8 m/s 3.6 mm 3.3° 998.0 hPa 8.9 m/s 16.4 mm 2.3° 1003.3 hPa 4.2 m/s 0.3 mm 3.2° 999.4 hPa 7.2 m/s 0.0 mm 1.1° 1004.2 hPa 4.1 m/s 2.0° 1004.0 hPa 5.2 m/s
22:00 1.7° 1005.6 hPa 5.2 m/s 0.0 mm 1.7° 1000.7 hPa 6.6 m/s 17.8 mm 2.1° 1005.7 hPa 4.2 m/s 0.1 mm 3.4° 1002.1 hPa 7.1 m/s 0.0 mm 0.8° 1006.7 hPa 4.8 m/s 0.8° 1006.7 hPa 4.8 m/s
 07:03     17:54    Daglengte: 10:51 Morgen
01:00 1.3° 1007.2 hPa 5.5 m/s 0.0 mm 1.1° 1003.1 hPa 7.9 m/s 19.3 mm 1.1° 1007.3 hPa 3.8 m/s 0.7 mm 3.5° 1004.7 hPa 8.0 m/s 0.0 mm 1.1° 1007.8 hPa 5.2 m/s 1.0° 1008.9 hPa 5.9 m/s
04:00 0.8° 1008.1 hPa 4.8 m/s 0.0 mm 0.0° 1003.8 hPa 5.3 m/s 19.4 mm 0.8° 1008.7 hPa 3.3 m/s 0.2 mm 2.9° 1006.3 hPa 7.2 m/s 0.0 mm 0.7° 1008.4 hPa 4.7 m/s 0.4° 1009.2 hPa 4.9 m/s
07:00 0.5° 1008.9 hPa 3.9 m/s 0.0 mm 0.6° 1005.1 hPa 4.4 m/s 19.5 mm 0.7° 1009.2 hPa 3.4 m/s 0.2 mm 1.1° 1007.9 hPa 5.0 m/s 0.0 mm 0.0° 1009.2 hPa 3.8 m/s 1.1° 1010.4 hPa 5.6 m/s
10:00 2.7° 1007.9 hPa 5.9 m/s 0.0 mm 2.3° 1004.4 hPa 6.7 m/s 20.6 mm 2.6° 1009.3 hPa 4.3 m/s 0.1 mm 3.5° 1007.3 hPa 7.0 m/s 0.0 mm 2.9° 1007.9 hPa 6.3 m/s 2.2° 1009.0 hPa 5.4 m/s
13:00 4.6° 1003.8 hPa 4.0 m/s 0.0 mm 4.1° 1001.7 hPa 5.6 m/s 20.9 mm 4.7° 1004.7 hPa 3.4 m/s 0.0 mm 5.4° 1003.6 hPa 6.5 m/s 0.0 mm 4.5° 1004.1 hPa 3.7 m/s 4.5° 1004.1 hPa 4.8 m/s
16:00 4.2° 998.4 hPa 4.7 m/s 1.5 mm 3.5° 994.5 hPa 7.4 m/s 21.0 mm 4.6° 998.9 hPa 3.7 m/s 0.0 mm 5.3° 998.9 hPa 5.5 m/s 0.0 mm 4.2° 998.8 hPa 3.5 m/s 2.6° 998.3 hPa 5.5 m/s
19:00 0.8° 993.6 hPa 4.9 m/s 7.3 mm 0.6° 986.3 hPa 7.2 m/s 28.4 mm 0.5° 995.0 hPa 3.7 m/s 3.3 mm 2.4° 993.7 hPa 4.9 m/s 0.0 mm 0.9° 994.6 hPa 4.8 m/s 1.0° 991.8 hPa 7.9 m/s
22:00 1.2° 989.9 hPa 4.6 m/s 9.4 mm 0.7° 983.7 hPa 13.8 m/s 34.8 mm 1.2° 991.6 hPa 3.4 m/s 7.0 mm 1.0° 990.2 hPa 2.2 m/s 2.2° 990.3 hPa 13.7 m/s
 07:01     17:56    Daglengte: 10:55 Vrijdag 28 Feb
01:00 0.7° 1003.4 hPa 6.7 m/s 7.6 mm 0.9° 995.5 hPa 13.3 m/s 42.7 mm 0.6° 1002.1 hPa 5.0 m/s 1.2 mm 0.6° 1004.3 hPa 6.0 m/s 1.0° 999.3 hPa 14.0 m/s
04:00 0.6° 1009.0 hPa 7.1 m/s 9.0 mm 0.2° 1003.7 hPa 8.5 m/s 43.8 mm 0.8° 1008.9 hPa 4.4 m/s 0.7 mm 0.6° 1009.2 hPa 7.5 m/s 0.9° 1008.5 hPa 8.5 m/s
07:00 0.4° 1014.2 hPa 6.2 m/s 2.2 mm 0.5° 1008.1 hPa 9.1 m/s 44.1 mm 0.7° 1013.8 hPa 5.9 m/s 0.2 mm 0.3° 1014.7 hPa 5.9 m/s 0.8° 1013.9 hPa 7.5 m/s
10:00 1.7° 1017.9 hPa 6.1 m/s 0.0 mm 2.0° 1012.5 hPa 7.6 m/s 44.4 mm 2.1° 1018.2 hPa 5.0 m/s 0.1 mm 1.4° 1018.2 hPa 6.3 m/s 1.5° 1017.4 hPa 6.8 m/s
13:00 3.7° 1018.6 hPa 5.6 m/s 3.1 mm 3.7° 1014.6 hPa 7.6 m/s 44.4 mm 4.6° 1018.3 hPa 4.8 m/s 0.1 mm 3.0° 1019.3 hPa 5.8 m/s 2.9° 1018.0 hPa 5.8 m/s
16:00 4.1° 1017.4 hPa 2.9 m/s 0.0 mm 4.3° 1013.2 hPa 5.8 m/s 44.4 mm 4.9° 1017.1 hPa 2.4 m/s 0.0 mm 2.9° 1019.4 hPa 2.7 m/s 3.5° 1016.2 hPa 3.5 m/s
19:00 1.1° 1016.5 hPa 1.9 m/s 0.0 mm 2.8° 1012.6 hPa 2.2 m/s 44.4 mm 2.7° 1016.3 hPa 1.9 m/s 0.0 mm -1.0° 1019.0 hPa 1.9 m/s 1.7° 1015.7 hPa 1.8 m/s
22:00 1.0° 1014.7 hPa 2.9 m/s 0.0 mm 2.3° 1011.5 hPa 2.8 m/s 44.4 mm 2.3° 1013.7 hPa 3.1 m/s 0.0 mm -0.4° 1017.0 hPa 2.6 m/s 1.5° 1014.4 hPa 2.2 m/s
 06:59     17:57    Daglengte: 10:58 Zaterdag 29 Feb
01:00 1.4° 1012.1 hPa 3.4 m/s 10.5 mm 2.6° 1008.9 hPa 3.9 m/s 44.4 mm 2.6° 1010.2 hPa 3.4 m/s 0.9 mm 0.1° 1014.9 hPa 3.4 m/s 1.7° 1011.5 hPa 2.9 m/s
04:00 1.8° 1009.3 hPa 3.7 m/s 17.2 mm 2.1° 1004.9 hPa 4.9 m/s 46.5 mm 3.5° 1006.9 hPa 3.5 m/s 2.5 mm 1.2° 1012.2 hPa 3.5 m/s 3.9° 1007.5 hPa 3.5 m/s
07:00 3.2° 1006.7 hPa 3.6 m/s 19.5 mm 4.2° 1003.2 hPa 3.7 m/s 57.6 mm 4.3° 1004.0 hPa 2.9 m/s 0.5 mm 2.2° 1009.5 hPa 3.7 m/s 5.8° 1005.6 hPa 3.1 m/s
10:00 5.6° 1005.6 hPa 3.8 m/s 18.1 mm 5.3° 1005.8 hPa 3.9 m/s 8.8° 1003.5 hPa 3.2 m/s 18.1 mm
13:00 7.2° 1003.6 hPa 4.0 m/s 18.1 mm 6.8° 1004.0 hPa 4.0 m/s 11.2° 999.7 hPa 4.3 m/s 18.1 mm
16:00 7.4° 1001.1 hPa 4.3 m/s 18.1 mm 7.0° 1001.5 hPa 4.2 m/s 11.3° 996.6 hPa 4.3 m/s 18.1 mm
19:00 7.4° 998.9 hPa 4.4 m/s 19.6 mm 7.2° 999.1 hPa 4.5 m/s 9.2° 997.0 hPa 3.5 m/s 19.6 mm
22:00 6.2° 1002.4 hPa 5.6 m/s 20.8 mm 6.1° 1002.7 hPa 5.5 m/s 7.6° 1000.2 hPa 7.3 m/s 20.8 mm
 06:57     17:59    Daglengte: 11:02 Zondag 01 Maa
01:00 5.0° 1005.9 hPa 6.3 m/s 20.8 mm 5.0° 1006.2 hPa 6.4 m/s 5.0° 1002.5 hPa 4.8 m/s 20.8 mm
04:00 3.7° 1007.8 hPa 4.9 m/s 20.8 mm 3.8° 1008.2 hPa 5.1 m/s 3.6° 1002.5 hPa 3.8 m/s 20.8 mm
07:00 2.6° 1009.6 hPa 3.8 m/s 20.8 mm 2.5° 1010.3 hPa 3.7 m/s 3.9° 1002.3 hPa 4.6 m/s 20.8 mm
10:00 4.7° 1009.9 hPa 4.4 m/s 20.8 mm 4.7° 1010.5 hPa 4.2 m/s 5.5° 1003.0 hPa 7.1 m/s 20.8 mm
13:00 6.9° 1010.0 hPa 4.8 m/s 21.0 mm 6.8° 1010.8 hPa 4.7 m/s 7.8° 1001.0 hPa 6.0 m/s 21.0 mm
16:00 4.8° 1008.9 hPa 3.3 m/s 21.2 mm 4.5° 1009.8 hPa 3.2 m/s 8.1° 999.1 hPa 4.9 m/s 21.2 mm
19:00 2.4° 1007.7 hPa 1.7 m/s 21.2 mm 2.1° 1008.7 hPa 1.6 m/s 5.3° 997.2 hPa 3.2 m/s 21.2 mm
22:00 1.3° 1006.2 hPa 2.7 m/s 22.3 mm 0.9° 1007.2 hPa 2.4 m/s 5.8° 995.2 hPa 5.5 m/s 22.3 mm
 06:55     18:01    Daglengte: 11:06 Maandag 02 Maa
01:00 0.1° 1005.1 hPa 3.5 m/s 24.4 mm -0.4° 1005.7 hPa 3.2 m/s 5.4° 998.2 hPa 7.1 m/s 24.4 mm
04:00 0.7° 1003.8 hPa 3.5 m/s 24.4 mm 0.4° 1004.4 hPa 3.5 m/s 4.0° 996.8 hPa 3.4 m/s 24.4 mm
07:00 1.5° 1002.3 hPa 4.0 m/s 24.4 mm 1.2° 1003.1 hPa 3.9 m/s 5.2° 993.5 hPa 4.5 m/s 24.4 mm
10:00 4.1° 1001.6 hPa 5.0 m/s 26.5 mm 3.9° 1002.2 hPa 4.8 m/s 5.8° 994.7 hPa 7.7 m/s 26.5 mm
13:00 6.7° 1001.0 hPa 5.8 m/s 26.6 mm 6.6° 1001.4 hPa 5.7 m/s 8.3° 996.1 hPa 6.8 m/s 26.6 mm
16:00 5.4° 1001.5 hPa 4.0 m/s 26.6 mm 5.0° 1002.1 hPa 4.0 m/s 8.7° 994.6 hPa 4.5 m/s 26.6 mm
19:00 3.6° 1002.3 hPa 2.2 m/s 26.6 mm 3.5° 1002.9 hPa 2.2 m/s 5.0° 995.5 hPa 2.3 m/s 26.6 mm
22:00 2.0° 1003.4 hPa 1.6 m/s 26.6 mm 1.8° 1004.0 hPa 1.6 m/s 3.8° 996.7 hPa 2.5 m/s 26.6 mm
 06:53     18:02    Daglengte: 11:09 Dinsdag 03 Maa
01:00 0.4° 1004.6 hPa 1.0 m/s 26.6 mm 0.1° 1005.2 hPa 0.9 m/s 3.1° 997.6 hPa 2.3 m/s 26.6 mm
04:00 0.2° 1006.6 hPa 1.1 m/s 26.6 mm 0.0° 1007.4 hPa 1.1 m/s 2.6° 998.3 hPa 2.2 m/s 26.6 mm
07:00 0.1° 1008.8 hPa 1.4 m/s 26.6 mm -0.1° 1009.6 hPa 1.2 m/s 2.7° 1000.1 hPa 3.2 m/s 26.6 mm
10:00 3.6° 1011.0 hPa 1.6 m/s 26.7 mm 3.2° 1011.9 hPa 1.2 m/s 6.9° 1001.4 hPa 6.2 m/s 26.7 mm
13:00 6.5° 1013.2 hPa 1.7 m/s 26.8 mm 6.6° 1014.1 hPa 1.2 m/s 5.6° 1003.4 hPa 7.1 m/s 26.8 mm
16:00 4.8° 1014.6 hPa 1.9 m/s 27.1 mm 4.7° 1015.5 hPa 1.4 m/s 5.7° 1004.7 hPa 7.3 m/s 27.1 mm
19:00 2.8° 1015.9 hPa 1.8 m/s 27.2 mm 2.8° 1016.8 hPa 1.7 m/s 2.8° 1006.3 hPa 3.3 m/s 27.2 mm
22:00 1.0° 1016.5 hPa 1.9 m/s 27.2 mm 0.9° 1017.3 hPa 1.8 m/s 1.9° 1007.1 hPa 2.8 m/s 27.2 mm
 06:51     18:04    Daglengte: 11:13 Woensdag 04 Maa
01:00 -0.7° 1016.9 hPa 2.0 m/s 27.2 mm -1.0° 1017.9 hPa 1.9 m/s 2.8° 1005.6 hPa 3.2 m/s 27.2 mm
04:00 -0.8° 1015.3 hPa 2.8 m/s 27.2 mm -1.1° 1016.5 hPa 2.6 m/s 2.9° 1002.4 hPa 4.1 m/s 27.2 mm
07:00 -0.8° 1013.8 hPa 3.6 m/s 27.2 mm -1.3° 1015.1 hPa 3.4 m/s 4.2° 999.9 hPa 5.3 m/s 27.2 mm
13:00 4.5° 1010.4 hPa 4.7 m/s 27.3 mm 3.8° 1012.0 hPa 4.5 m/s 12.7° 993.2 hPa 7.2 m/s 27.3 mm
19:00 6.0° 1009.0 hPa 4.0 m/s 33.3 mm 5.9° 1010.5 hPa 3.9 m/s 6.8° 992.4 hPa 5.4 m/s 33.3 mm
 06:49     18:05    Daglengte: 11:16 Donderdag 05 Maa
01:00 3.6° 1005.1 hPa 3.7 m/s 34.1 mm 3.4° 1006.2 hPa 3.6 m/s 5.4° 992.6 hPa 5.1 m/s 34.1 mm
07:00 4.2° 1003.6 hPa 6.6 m/s 34.8 mm 4.4° 1004.6 hPa 6.9 m/s 2.3° 992.9 hPa 3.8 m/s 34.8 mm
13:00 5.8° 1006.3 hPa 7.8 m/s 35.9 mm 5.9° 1007.6 hPa 7.9 m/s 4.9° 991.8 hPa 6.4 m/s 35.9 mm
19:00 3.4° 1004.9 hPa 5.2 m/s 41.5 mm 3.4° 1006.0 hPa 5.1 m/s 3.2° 992.9 hPa 5.8 m/s 41.5 mm
 06:47     18:07    Daglengte: 11:20 Vrijdag 06 Maa
01:00 1.9° 1003.6 hPa 4.9 m/s 42.2 mm 1.9° 1004.3 hPa 4.8 m/s 2.1° 995.7 hPa 6.1 m/s 42.2 mm
07:00 1.2° 1004.6 hPa 4.8 m/s 43.0 mm 1.2° 1005.2 hPa 4.6 m/s 0.8° 997.8 hPa 7.0 m/s 43.0 mm
13:00 1.5° 1000.7 hPa 6.2 m/s 45.5 mm 1.5° 1000.7 hPa 6.2 m/s 45.5 mm
19:00 1.6° 1002.9 hPa 4.0 m/s 46.7 mm 1.6° 1002.9 hPa 4.0 m/s 46.7 mm
 06:45     18:09    Daglengte: 11:24 Zaterdag 07 Maa
01:00 0.3° 1009.3 hPa 3.4 m/s 0.8 mm
07:00 -0.9° 1010.1 hPa 2.0 m/s 0.8 mm
13:00 2.9° 1011.2 hPa 3.2 m/s 0.8 mm
19:00 0.8° 1013.6 hPa 2.2 m/s 0.5 mm
 06:43     18:10    Daglengte: 11:27 Zondag 08 Maa
01:00 0.0° 1015.0 hPa 2.2 m/s 0.5 mm
07:00 -0.5° 1015.7 hPa 1.8 m/s 0.7 mm
13:00 3.6° 1015.0 hPa 1.4 m/s 0.5 mm
19:00 0.9° 1015.4 hPa 0.7 m/s 0.3 mm
 06:41     18:12    Daglengte: 11:31 Maandag 09 Maa
01:00 -0.1° 1016.5 hPa 0.7 m/s 0.6 mm
07:00 -0.2° 1017.7 hPa 0.7 m/s 0.8 mm
13:00 4.6° 1018.4 hPa 1.1 m/s 0.6 mm
19:00 1.7° 1019.2 hPa 0.4 m/s 0.5 mm
 06:39     18:13    Daglengte: 11:34 Dinsdag 10 Maa
01:00 -0.2° 1020.1 hPa 0.4 m/s 0.2 mm
07:00 -0.3° 1019.8 hPa 0.2 m/s 0.1 mm
13:00 5.4° 1018.6 hPa 1.0 m/s 0.1 mm
19:00 1.8° 1018.3 hPa 0.8 m/s 0.3 mm
 06:36     18:15    Daglengte: 11:39 Woensdag 11 Maa
01:00 0.9° 1018.8 hPa 1.4 m/s 0.3 mm
07:00 0.5° 1019.2 hPa 1.4 m/s 1.2 mm
13:00 5.8° 1018.9 hPa 1.7 m/s 0.6 mm
19:00 2.8° 1018.7 hPa 0.9 m/s 0.9 mm
 06:34     18:17    Daglengte: 11:43 Donderdag 12 Maa
01:00 1.0° 1019.4 hPa 0.8 m/s 0.7 mm
FMI Hirlam - 7.5 km EWN WRFDA - 12 km DWD ICON - 7 km GFS - 25 km Basiskaart






























































Updatetijd (Europe/Amsterdam) Resolutie Lengte Stap
FMI Hirlam 01:00, 07:00, 13:00, 19:00 7.5 km 49h 1h
EWN WRFDA 02:15, 08:15, 14:15, 20:15 12 km 73h 1h
DWD ICON 05:00, 11:00, 17:00, 23:00 7 km 75h 1h
GFS 01:00, 07:00, 13:00, 19:00 25 km 237h 3h
30+ mm
25-30 mm
20-25 mm
15-20 mm
10-15 mm
6-10 mm
4-6 mm
2-4 mm
1-2 mm
0.5-1 mm
0.2-0.5 mm
0.1-0.2 mm
30+ mm
25-30 mm
20-25 mm
15-20 mm
10-15 mm
6-10 mm
4-6 mm
2-4 mm
1-2 mm
0.5-1 mm
0.2-0.5 mm
0.1-0.2 mm
Sneeuwval
Natte sneeuw
Hagel
Vorst
30+ mm
25-30 mm
20-25 mm
15-20 mm
10-15 mm
6-10 mm
4-6 mm
2-4 mm
1-2 mm
0.5-1 mm
0.2-0.5 mm
0.1-0.2 mm
Sneeuwval
Natte sneeuw
Hagel
Vorst
Onweer
50 mm
40 mm
30 mm
26 mm
22 mm
18 mm
14 mm
10 mm
9 mm
8 mm
7 mm
6 mm
5 mm
4.5 mm
4 mm
3.5 mm
3 mm
2.5 mm
2 mm
1.5 mm
1 mm
0.8 mm
0.6 mm
0.4 mm
0.2 mm
0.05 mm
35°
30°
25°
20°
15°
10°
-5°
-10°
-15°
-20°
-25°
-30°
-35°
33> m/s
29 m/s
25 m/s
21 m/s
17 m/s
14 m/s
11 m/s
8 m/s
5 m/s
3 m/s
0 m/s
2600 J/kg
2400 J/kg
2200 J/kg
2000 J/kg
1800 J/kg
1600 J/kg
1400 J/kg
1200 J/kg
1000 J/kg
800 J/kg
600 J/kg
400 J/kg
200 J/kg
70 dBZ
65 dBZ
60 dBZ
55 dBZ
50 dBZ
45 dBZ
40 dBZ
35 dBZ
30 dBZ
25 dBZ
20 dBZ
15 dBZ
10 dBZ
5 dBZ
-1 K
-2 K
-3 K
-4 K
-5 K
-6 K
-7 K
-8 K
-9 K
950 m²/s²
900 m²/s²
850 m²/s²
800 m²/s²
750 m²/s²
700 m²/s²
650 m²/s²
600 m²/s²
550 m²/s²
500 m²/s²
450 m²/s²
400 m²/s²
350 m²/s²
300 m²/s²
250 m²/s²
200 m²/s²
150 m²/s²
100 m²/s²
46 m/s
44 m/s
42 m/s
40 m/s
38 m/s
36 m/s
34 m/s
32 m/s
30 m/s
28 m/s
26 m/s
24 m/s
22 m/s
20 m/s
16 m/s
12 m/s
8 m/s
4 m/s
30 m/s
28 m/s
26 m/s
24 m/s
22 m/s
20 m/s
18 m/s
16 m/s
14 m/s
12 m/s
10 m/s
8 m/s
6 m/s
4 m/s
2 m/s
3.0
2.8
2.6
2.4
2.2
2.0
1.8
1.6
1.4
1.2
1.0
0.8
0.6
0.4
0.2
15
14
13
12
11
10
9
8
7
6
5
4
3
2
1
90%
80%
70%
60%
50%
40%
30%
20%
10%
42
40
38
36
34
32
30
28
26
24
22
20
18
16
14
12
90+ cm
80-90 cm
70-80 cm
60-70 cm
50-60 cm
40-50 cm
30-40 cm
20-30 cm
10-20 cm
1-10 cm
Sneeuwval
Natte sneeuw
Regen
>120 mm
115 mm
110 mm
105 mm
100 mm
95 mm
90 mm
85 mm
80 mm
75 mm
70 mm
65 mm
60 mm
55 mm
50 mm
45 mm
45 mm
40 mm
35 mm
30 mm
25 mm
20 mm
15 mm
10 mm
5 mm
0.1 mm
960 hPa
880 hPa
800 hPa
720 hPa
640 hPa
560 hPa
584 gpdm
568 gpdm
552 gpdm
536 gpdm
520 gpdm
504 gpdm
488 gpdm
Extreem zwaar Noodweer Kans op onweer
15% 15% 5% 50% 15%

Dag




Kaart






35°
30°
25°
20°
15°
10°
-5°
-10°
-15°
-20°
-25°
-30°
-35°
33> m/s
29 m/s
25 m/s
21 m/s
17 m/s
14 m/s
11 m/s
8 m/s
5 m/s
3 m/s